DW5338 Weather Reports


time (UTC)temp
C
wind
direction
speed
KPH
gust
KPH
rain 1hr
cm
rain 24hr
cm
rain mn
cm
humidity
%
barometer
mb
20210801211355 17 22 8.0 17.7 0.00 1.09 0.00 73 1029.5
20210801210901 16 90 3.2 11.3 0.00 1.09 0.00 74 1029.8
20210801210355 16 22 4.8 14.5 0.00 1.09 0.00 74 1029.8
20210801205855 16 67 4.8 9.7 0.00 1.09 0.00 74 1029.8
20210801205355 16 45 3.2 8.0 0.00 1.09 0.00 73 1029.8
20210801204856 16 45 8.0 11.3 0.00 1.09 0.00 74 1030.1
20210801204356 16 90 9.7 12.9 0.00 1.09 0.00 75 1030.1
20210801203900 16 67 12.9 12.9 0.00 1.09 0.00 75 1030.1
20210801203355 16 22 3.2 12.9 0.00 1.09 0.00 75 1030.1
20210801202900 16 292 1.6 12.9 0.00 1.09 0.00 74 1030.1
20210801202401 16 45 9.7 12.9 0.00 1.09 0.00 74 1030.1
20210801201900 16 135 3.2 9.7 0.00 1.09 0.00 74 1030.4
20210801201400 17 157 1.6 9.7 0.00 1.09 0.00 75 1030.4
20210801200856 17 45 4.8 12.9 0.00 1.09 0.00 76 1030.8
20210801200355 17 22 8.0 12.9 0.00 1.09 0.00 76 1030.4
20210801195855 16 90 8.0 12.9 0.00 1.09 0.00 76 1030.8
20210801195356 16 337 1.6 11.3 0.00 1.09 0.00 78 1030.8
20210801194855 16 112 9.7 14.5 0.00 1.09 0.00 79 1030.8
20210801194355 16 67 12.9 12.9 0.00 1.09 0.00 79 1031.1
20210801193856 16 135 4.8 17.7 0.00 1.09 0.00 78 1031.1
20210801193356 16 45 4.8 20.9 0.00 1.09 0.00 79 1031.1
20210801192900 16 67 4.8 14.5 0.00 1.14 0.00 79 1031.1
20210801192355 16 0 9.7 12.9 0.00 1.14 0.00 80 1030.8
20210801191855 16 112 4.8 12.9 0.00 1.14 0.00 82 1031.1
20210801191356 15 90 8.0 12.9 0.00 1.19 0.00 84 1031.4
20210801190900 15 90 1.6 8.0 0.00 1.19 0.00 84 1031.4
20210801190355 14 135 6.4 9.7 0.00 1.24 0.00 84 1031.4
20210801185856 14 90 3.2 9.7 0.00 1.24 0.00 83 1031.4
20210801185356 14 67 3.2 8.0 0.00 1.27 0.00 83 1031.4
20210801184900 14 67 6.4 8.0 0.00 1.27 0.00 83 1031.4
20210801184400 14 22 6.4 8.0 0.00 1.27 0.00 82 1031.4
20210801183855 14 270 1.6 8.0 0.00 1.27 0.00 83 1031.8
20210801183355 15 22 3.2 8.0 0.00 1.27 0.00 83 1031.8
20210801182856 15 247 0.0 8.0 0.00 1.27 0.00 82 1031.8
20210801182356 15 45 4.8 9.7 0.00 1.27 0.00 83 1031.4
20210801181855 15 22 4.8 11.3 0.00 1.27 0.00 83 1031.4
20210801181400 15 45 8.0 11.3 0.00 1.27 0.00 83 1031.8
20210801180855 15 90 6.4 9.7 0.00 1.27 0.00 83 1031.8
20210801180356 15 112 9.7 11.3 0.00 1.27 0.00 82 1031.8
20210801175855 15 90 8.0 9.7 0.00 1.27 0.00 82 1031.8
20210801175355 15 22 4.8 11.3 0.00 1.27 0.00 81 1031.8
20210801174855 15 22 8.0 14.5 0.00 1.27 0.00 80 1031.8
20210801174355 15 45 11.3 14.5 0.00 1.27 0.00 81 1032.1
20210801173855 15 22 3.2 9.7 0.00 1.27 0.00 80 1031.8
20210801173355 15 90 8.0 12.9 0.00 1.27 0.00 80 1031.8
20210801172855 15 90 4.8 12.9 0.00 1.27 0.00 79 1032.1
20210801172355 15 22 1.6 9.7 0.00 1.27 0.00 79 1031.8
20210801171855 15 22 0.0 8.0 0.00 1.27 0.00 78 1031.8
20210801171355 15 45 1.6 8.0 0.00 1.27 0.00 79 1031.9
20210801170855 15 0 8.0 12.9 0.00 1.27 0.00 79 1032.2
20210801170355 15 45 4.8 8.0 0.00 1.27 0.00 78 1031.9
20210801165855 15 67 4.8 8.0 0.00 1.27 0.00 78 1031.9
20210801165355 15 112 6.4 9.7 0.00 1.27 0.00 76 1031.9
20210801164855 15 90 1.6 8.0 0.00 1.27 0.00 77 1031.9
20210801164356 14 0 6.4 9.7 0.00 1.27 0.00 77 1031.9
20210801163855 14 202 3.2 9.7 0.00 1.27 0.00 77 1031.9
20210801163355 14 112 3.2 9.7 0.00 1.27 0.00 77 1031.9
20210801162855 14 180 4.8 9.7 0.00 1.27 0.00 77 1031.9
20210801162355 14 135 1.6 14.5 0.00 1.27 0.00 79 1031.9
20210801161855 13 157 4.8 8.0 0.00 1.27 0.00 81 1031.9
20210801161355 13 225 1.6 8.0 0.00 1.27 0.00 81 1031.9
20210801160855 13 157 3.2 9.7 0.00 1.27 0.00 82 1031.6
20210801160355 13 247 4.8 6.4 0.00 1.27 0.00 83 1031.6
20210801155855 12 225 1.6 8.0 0.00 1.27 0.00 83 1031.7
20210801155355 12 180 6.4 9.7 0.00 1.27 0.00 85 1032.0
20210801154855 12 292 1.6 6.4 0.00 1.27 0.00 86 1031.7
20210801154355 11 112 8.0 8.0 0.00 1.27 0.00 88 1032.0
20210801153855 11 202 4.8 4.8 0.00 1.27 0.00 90 1032.0
20210801153355 11 270 1.6 4.8 0.00 1.27 0.00 93 1032.0
20210801152855 11 157 1.6 4.8 0.00 1.27 0.00 94 1032.0
20210801152356 11 270 4.8 4.8 0.00 1.27 0.00 95 1032.0
20210801151855 11 292 1.6 4.8 0.00 1.27 0.00 96 1032.0
20210801151355 11 247 3.2 8.0 0.00 1.27 0.00 96 1032.0
20210801150855 10 247 4.8 9.7 0.00 1.27 0.00 97 1032.0
20210801150355 10 225 8.0 8.0 0.00 1.27 0.00 97 1032.0
20210801145855 10 225 1.6 6.4 0.00 1.27 0.00 97 1032.0
20210801145355 10 225 6.4 8.0 0.00 1.27 0.00 98 1032.0
20210801144855 10 225 4.8 8.0 0.00 1.27 0.00 98 1032.0
20210801144355 10 247 8.0 8.0 0.00 1.27 0.00 98 1032.0
20210801143855 10 225 8.0 9.7 0.00 1.27 0.00 98 1032.0
20210801143355 9 225 8.0 12.9 0.00 1.27 0.00 98 1031.7
20210801142855 9 225 9.7 9.7 0.00 1.27 0.00 98 1032.1
20210801142355 9 247 8.0 11.3 0.00 1.27 0.00 98 1031.8
20210801141855 9 247 9.7 14.5 0.00 1.27 0.00 98 1031.8
20210801141355 9 225 4.8 12.9 0.00 1.27 0.00 98 1031.8
20210801140855 9 202 8.0 14.5 0.00 1.27 0.00 98 1032.1
20210801140355 8 225 8.0 16.1 0.00 1.27 0.00 98 1032.1
20210801135855 8 202 9.7 12.9 0.00 1.27 0.00 99 1032.1
20210801135355 8 225 8.0 11.3 0.00 1.27 0.00 99 1031.8
20210801134855 8 225 9.7 11.3 0.00 1.27 0.00 99 1032.1
20210801134355 8 202 9.7 9.7 0.00 1.27 0.00 99 1032.1
20210801133855 8 225 9.7 9.7 0.00 1.27 0.00 99 1032.1
20210801133356 8 202 8.0 12.9 0.00 1.27 0.00 99 1032.1
20210801132855 8 202 9.7 11.3 0.00 1.27 0.00 99 1032.1
20210801132355 8 247 6.4 9.7 0.00 1.27 0.00 99 1032.1
20210801131855 8 202 8.0 12.9 0.00 1.27 0.00 99 1032.1
20210801131355 8 247 12.9 12.9 0.00 1.27 0.00 100 1032.1
20210801130855 8 202 6.4 12.9 0.00 1.27 0.00 100 1032.2
20210801130355 8 247 8.0 12.9 0.00 1.27 0.00 100 1031.9
20210801125855 8 247 8.0 11.3 0.00 1.27 0.00 100 1031.9
20210801125355 8 202 8.0 11.3 0.00 1.27 0.00 100 1031.9
20210801124855 8 225 9.7 11.3 0.00 1.27 0.00 100 1031.9
20210801124355 8 225 8.0 12.9 0.00 1.27 0.00 100 1031.9
20210801123855 8 225 6.4 9.7 0.00 1.27 0.00 100 1031.9
20210801123355 8 202 8.0 9.7 0.00 1.27 0.00 100 1031.9
20210801122855 8 225 6.4 9.7 0.00 1.27 0.00 100 1032.0
20210801122355 8 225 6.4 11.3 0.00 1.27 0.00 100 1032.0
20210801121855 8 225 8.0 11.3 0.00 1.27 0.00 100 1032.0
20210801121355 8 225 8.0 9.7 0.00 1.27 0.00 100 1032.0
20210801120855 8 247 6.4 16.1 0.00 1.27 0.00 100 1032.0
20210801120355 8 225 8.0 12.9 0.00 1.27 0.00 100 1031.7
20210801115855 8 225 8.0 9.7 0.00 1.27 0.00 100 1031.7
20210801115355 8 225 4.8 8.0 0.00 1.27 0.00 100 1031.8
20210801114855 8 247 4.8 8.0 0.00 1.27 0.00 100 1031.8
20210801114355 8 247 4.8 8.0 0.00 1.27 0.00 100 1031.8
20210801113855 8 270 3.2 9.7 0.00 1.27 0.00 100 1031.8
20210801113355 8 247 6.4 9.7 0.00 1.27 0.00 100 1031.5
20210801112855 8 202 6.4 11.3 0.00 1.27 0.00 100 1031.8
20210801112355 8 225 9.7 12.9 0.00 1.27 0.00 100 1031.9
20210801111855 8 225 11.3 12.9 0.00 1.27 0.00 100 1031.9
20210801111355 8 202 9.7 12.9 0.00 1.27 0.00 100 1031.9
20210801110855 8 247 9.7 11.3 0.00 1.27 0.00 100 1031.9
20210801110355 8 247 8.0 12.9 0.00 1.27 0.00 100 1031.9
20210801105855 8 202 8.0 11.3 0.00 1.27 0.00 100 1031.6
20210801105355 8 202 8.0 12.9 0.00 1.27 0.00 100 1031.6
20210801104855 8 225 9.7 11.3 0.00 1.27 0.00 100 1031.6
20210801104355 8 225 6.4 9.7 0.00 1.27 0.00 100 1031.6
20210801103855 8 247 8.0 9.7 0.00 1.27 0.00 100 1031.7
20210801103355 8 202 8.0 11.3 0.00 1.27 0.00 100 1031.7
20210801102855 8 247 8.0 12.9 0.00 1.27 0.00 100 1031.7
20210801102355 8 247 11.3 12.9 0.00 1.27 0.00 100 1031.7
20210801101855 8 225 8.0 12.9 0.00 1.27 0.00 100 1031.7
20210801101355 8 202 8.0 11.3 0.00 1.27 0.00 100 1031.7
20210801100855 8 247 8.0 11.3 0.00 1.27 0.00 100 1031.7
20210801100355 8 225 6.4 11.3 0.00 1.27 0.00 100 1031.7
20210801095855 8 225 8.0 9.7 0.00 1.27 0.00 100 1031.7
20210801095355 8 270 8.0 11.3 0.00 1.27 0.00 100 1031.4
20210801094855 8 247 8.0 12.9 0.00 1.27 0.00 100 1031.8
20210801094355 9 202 9.7 11.3 0.00 1.27 0.00 100 1031.4
20210801093855 9 247 8.0 11.3 0.00 1.27 0.00 100 1031.4
20210801093355 9 180 9.7 12.9 0.00 1.27 0.00 100 1031.4
20210801092855 9 225 9.7 12.9 0.00 1.27 0.00 100 1031.4
20210801092355 9 247 8.0 9.7 0.00 1.27 0.00 100 1031.5
20210801091855 9 247 9.7 11.3 0.00 1.27 0.00 100 1031.5
20210801091355 9 225 6.4 9.7 0.00 1.27 0.00 100 1031.5
20210801090855 9 225 8.0 11.3 0.00 1.27 0.00 100 1031.5
20210801090355 9 225 8.0 9.7 0.00 1.27 0.00 100 1031.5
20210801085855 9 225 8.0 11.3 0.00 1.27 0.00 100 1031.5
20210801085355 9 247 6.4 9.7 0.00 1.27 0.00 100 1031.5
20210801084855 9 225 4.8 8.0 0.00 1.27 0.00 100 1031.5
20210801084355 9 202 6.4 9.7 0.00 1.27 0.00 100 1031.5
20210801083855 10 225 9.7 12.9 0.00 1.27 0.00 100 1031.5
20210801083355 10 202 8.0 9.7 0.00 1.27 0.00 100 1031.9
20210801082856 10 247 6.4 9.7 0.00 1.27 0.00 100 1031.9
20210801082356 10 247 8.0 11.3 0.00 1.32 0.00 100 1031.5
20210801081855 10 247 8.0 11.3 0.00 1.32 0.00 100 1031.9
20210801081355 10 225 8.0 9.7 0.00 1.32 0.00 100 1031.6
20210801080855 10 202 8.0 9.7 0.00 1.32 0.00 100 1031.6
20210801080355 10 225 6.4 9.7 0.00 1.35 0.00 100 1031.6
20210801075855 10 225 8.0 9.7 0.00 1.35 0.00 100 1031.9
20210801075355 10 225 4.8 9.7 0.00 1.35 0.00 100 1031.9
20210801074855 10 247 6.4 8.0 0.00 1.35 0.00 100 1031.9
20210801074355 10 202 4.8 9.7 0.00 1.35 0.00 100 1031.9
20210801073855 10 202 4.8 8.0 0.00 1.40 0.00 100 1032.2
20210801073355 10 225 6.4 8.0 0.00 1.40 0.00 100 1031.9
20210801072855 10 270 4.8 9.7 0.00 1.40 0.00 100 1032.3
20210801072355 10 247 9.7 9.7 0.00 1.42 0.00 100 1032.3
20210801071855 10 225 4.8 12.9 0.00 1.42 0.00 100 1032.3
20210801071355 10 202 9.7 9.7 0.00 1.42 0.00 100 1032.3
20210801070855 10 225 8.0 9.7 0.00 1.47 0.00 100 1032.3
20210801070355 10 247 8.0 9.7 0.00 1.47 0.00 100 1032.3
20210801065855 10 247 6.4 9.7 0.00 1.47 0.00 100 1032.3
20210801065355 10 247 6.4 11.3 0.00 1.47 0.00 100 1032.6
20210801064855 10 202 6.4 9.7 0.00 1.47 0.00 100 1032.6
20210801064355 10 202 6.4 9.7 0.00 1.50 0.00 100 1032.6
20210801063855 10 270 4.8 9.7 0.00 1.50 0.00 100 1032.6
20210801063355 10 225 8.0 8.0 0.00 1.50 0.00 100 1032.6
20210801062855 10 270 8.0 9.7 0.00 1.50 0.00 100 1032.6
20210801062355 10 202 8.0 9.7 0.00 1.50 0.00 100 1032.6
20210801061855 10 202 4.8 9.7 0.00 1.50 0.00 100 1032.6
20210801061356 10 247 4.8 9.7 0.00 1.50 0.00 100 1032.6
20210801060855 10 225 8.0 9.7 0.00 1.50 0.00 100 1032.6
20210801060355 11 180 6.4 8.0 0.00 1.50 0.00 100 1032.6
20210801055855 11 202 6.4 9.7 0.00 1.50 0.00 100 1032.3
20210801055355 11 202 9.7 9.7 0.00 1.50 0.00 100 1032.3
20210801054855 11 225 4.8 4.8 0.00 1.50 0.00 100 1032.3
20210801054355 11 247 3.2 4.8 0.00 1.50 0.00 100 1032.3
20210801053855 11 270 1.6 4.8 0.00 1.50 0.00 100 1032.3
20210801053355 11 270 3.2 4.8 0.00 1.50 0.00 100 1032.3
20210801052855 11 270 3.2 4.8 0.00 1.50 0.00 100 1032.3
20210801052355 11 270 1.6 3.2 0.00 1.50 0.00 100 1032.3
20210801051855 11 247 3.2 3.2 0.00 1.50 0.00 100 1032.3
20210801051355 11 247 0.0 1.6 0.00 1.50 0.00 100 1032.3
20210801050855 11 292 1.6 1.6 0.00 1.50 0.00 100 1032.3
20210801050355 11 247 0.0 3.2 0.00 1.50 0.00 100 1032.3
20210801045855 11 315 0.0 3.2 0.00 1.55 0.00 99 1032.3
20210801045355 11 315 1.6 4.8 0.00 1.55 0.00 100 1032.3
20210801044855 11 22 3.2 4.8 0.00 1.57 0.00 100 1032.3
20210801044355 11 0 1.6 3.2 0.00 1.57 0.00 100 1032.3
20210801043855 11 270 3.2 4.8 0.00 1.60 0.00 100 1032.3
20210801043355 11 292 1.6 6.4 0.00 1.60 0.00 100 1032.3
20210801042855 11 247 3.2 4.8 0.00 1.65 0.00 100 1032.3
20210801042355 11 247 3.2 4.8 0.00 1.65 0.00 100 1032.3
20210801041855 11 247 1.6 4.8 0.00 1.68 0.00 100 1032.3
20210801041355 11 247 4.8 6.4 0.00 1.68 0.00 100 1032.3
20210801040855 11 225 4.8 6.4 0.00 1.73 0.00 100 1032.3
20210801040355 11 247 3.2 6.4 0.00 1.78 0.00 100 1032.3
20210801035855 11 247 4.8 8.0 0.00 1.78 0.00 100 1032.3
20210801035355 11 202 4.8 8.0 0.00 1.78 0.00 100 1032.0
20210801034855 11 225 1.6 8.0 0.00 1.78 0.00 100 1032.3
20210801034355 11 292 6.4 9.7 0.00 1.78 0.00 100 1032.3
20210801033855 11 292 8.0 9.7 0.00 1.85 0.00 100 1032.0
20210801033355 11 292 8.0 9.7 0.00 1.85 0.00 100 1032.0
20210801032855 10 292 4.8 8.0 0.00 1.85 0.00 100 1032.0
20210801032356 10 292 8.0 8.0 0.00 1.85 0.00 100 1032.0
20210801031855 10 292 4.8 9.7 0.00 1.85 0.00 100 1032.0
20210801031355 11 292 6.4 9.7 0.00 1.85 0.00 100 1032.1
20210801030855 10 292 4.8 11.3 0.00 1.85 0.00 100 1031.7
20210801030355 10 270 9.7 9.7 0.00 1.85 0.00 100 1031.7
20210801025855 10 270 8.0 11.3 0.00 1.85 0.00 100 1031.7
20210801025355 11 315 8.0 9.7 0.00 1.85 0.00 100 1031.4
20210801024855 11 315 4.8 11.3 0.00 1.85 0.00 100 1031.8
20210801024355 11 292 4.8 9.7 0.00 1.85 0.00 100 1031.8
20210801023855 11 292 8.0 8.0 0.00 1.85 0.00 100 1031.8
20210801023355 11 270 1.6 6.4 0.00 1.85 0.00 100 1031.4
20210801022855 11 270 4.8 6.4 0.00 1.85 0.00 100 1031.4
20210801022355 11 225 3.2 9.7 0.00 1.85 0.00 100 1031.4
20210801021855 11 247 4.8 8.0 0.00 1.85 0.00 100 1031.4
20210801021355 11 247 4.8 8.0 0.00 1.85 0.00 100 1031.4
20210801020856 11 247 6.4 6.4 0.00 1.85 0.00 100 1031.4
20210801020355 11 247 4.8 9.7 0.00 1.85 0.00 100 1031.4
20210801015855 10 270 1.6 8.0 0.00 1.85 0.00 100 1031.4
20210801015400 10 270 4.8 8.0 0.00 1.85 0.00 100 1031.4
20210801014855 10 292 8.0 8.0 0.00 1.85 0.00 100 1031.5
20210801014355 10 315 1.6 8.0 0.00 1.85 0.00 100 1031.5
20210801013855 10 315 8.0 9.7 0.00 1.85 0.00 100 1031.1
20210801013355 10 292 8.0 9.7 0.05 1.85 0.00 100 1031.1
20210801012855 10 292 6.4 9.7 0.05 1.85 0.00 100 1031.5
20210801012356 10 0 8.0 12.9 0.10 1.85 0.00 100 1031.2
20210801011855 10 315 9.7 11.3 0.15 1.85 0.00 100 1031.2
20210801011355 11 337 8.0 11.3 0.20 1.85 0.00 100 1031.5
20210801010856 11 315 6.4 9.7 0.25 1.85 0.00 100 1031.5
20210801010355 11 337 8.0 12.9 0.33 1.85 0.00 100 1031.5
20210801005856 11 337 8.0 12.9 0.33 1.85 0.00 100 1031.5
20210801005355 11 22 6.4 9.7 0.36 1.85 0.00 100 1031.2
20210801004900 11 22 4.8 12.9 0.36 1.85 0.00 100 1031.2
20210801004355 11 67 8.0 11.3 0.38 1.85 0.00 100 1031.2
20210801003855 11 292 3.2 11.3 0.41 1.85 0.00 100 1031.5
20210801003355 11 22 4.8 8.0 0.36 1.80 0.00 100 1031.5
20210801002856 11 337 6.4 9.7 0.36 1.80 0.00 100 1031.5
20210801002355 11 0 3.2 12.9 0.33 1.75 0.00 100 1031.5
20210801001855 11 0 6.4 16.1 0.33 1.70 0.00 100 1031.2
20210801001355 11 0 4.8 14.5 0.23 1.63 0.00 100 1031.2
20210801000855 11 270 6.4 12.9 0.23 1.57 0.00 100 1031.2
20210801000355 11 337 4.8 4.8 0.20 1.52 0.00 100 1031.2
20210731235855 11 22 1.6 3.2 0.20 1.52 0.00 100 1031.5
20210731235355 11 45 1.6 4.8 0.25 1.47 0.00 100 1031.2
20210731234855 11 67 1.6 8.0 0.36 1.47 0.00 100 1031.2
20210731234355 11 0 4.8 8.0 0.36 1.45 0.00 100 1031.2
20210731233855 11 292 3.2 9.7 0.36 1.42 0.00 100 1031.5
20210731233355 11 0 8.0 12.9 0.41 1.42 0.00 100 1031.2
20210731232855 11 337 8.0 8.0 0.46 1.42 0.00 100 1031.5
20210731232355 11 337 4.8 8.0 0.46 1.42 0.00 100 1031.5
20210731231856 11 0 6.4 8.0 0.46 1.37 0.00 100 1031.5
20210731231355 11 337 4.8 9.7 0.46 1.37 0.00 100 1031.5
20210731230855 11 22 3.2 12.9 0.43 1.32 0.00 100 1031.5
20210731230355 11 45 4.8 9.7 0.41 1.32 0.00 100 1031.5
20210731225855 11 22 9.7 11.3 0.46 1.32 0.00 100 1031.5
20210731225355 11 337 6.4 12.9 0.36 1.22 0.00 100 1031.5
20210731224855 11 0 4.8 12.9 0.28 1.14 0.00 100 1031.6
20210731224355 12 0 6.4 9.7 0.23 1.07 0.00 100 1031.9
20210731223900 12 22 8.0 9.7 0.20 1.07 0.00 100 1031.6
20210731223355 12 45 4.8 8.0 0.20 0.99 0.00 100 1031.6
20210731222855 12 337 4.8 6.4 0.18 0.99 0.00 100 1031.6
20210731222355 12 292 3.2 8.0 0.15 0.97 0.00 100 1031.6
20210731221855 12 337 4.8 6.4 0.13 0.94 0.00 100 1031.9
20210731221355 12 0 3.2 4.8 0.13 0.94 0.00 100 1031.9
20210731220855 12 315 1.6 4.8 0.10 0.91 0.00 100 1031.9
20210731220355 12 315 1.6 4.8 0.10 0.91 0.00 100 1031.6
20210731215855 12 0 4.8 8.0 0.08 0.86 0.00 100 1031.6
20210731215355 12 315 3.2 4.8 0.08 0.86 0.00 100 1031.6
20210731214855 12 292 4.8 9.7 0.08 0.86 0.00 100 1031.6
20210731214355 12 292 6.4 11.3 0.05 0.84 0.00 100 1031.6
20210731213855 12 315 9.7 16.1 0.05 0.84 0.00 100 1031.7
20210731213355 12 270 8.0 14.5 0.00 0.79 0.00 99 1032.0
20210731212855 13 315 12.9 12.9 0.00 0.79 0.00 99 1032.0
20210731212355 13 337 9.7 11.3 0.00 0.79 0.00 99 1032.0
20210731211855 13 292 9.7 9.7 0.00 0.79 0.00 98 1032.0